This is the latest recevied weather packets stored in our database for station/object WE8L. If no packets are shown the sender has not sent any weather packets the latest 10 day(s).
| Time | Temp. | Humidity | Pressure | Rain* | Wind** | Luminosity | Snow |
|---|---|---|---|---|---|---|---|
| 1777771767 | 6.67° C | 63% | 1020.5 hPa | 0 mm | - | 0 W/m² | - |
| 1777771465 | 6.67° C | 61% | 1020.6 hPa | 0 mm | - | 0 W/m² | - |
| 1777771161 | 7.22° C | 60% | 1020.5 hPa | 0 mm | - | 0 W/m² | - |
| 1777770858 | 7.22° C | 59% | 1020.5 hPa | 0 mm | - | 0 W/m² | - |
| 1777770555 | 7.78° C | 58% | 1020.6 hPa | 0 mm | - | 0 W/m² | - |
| 1777770252 | 7.78° C | 57% | 1020.2 hPa | 0 mm | - | 0 W/m² | - |
| 1777769949 | 7.78° C | 56% | 1020.5 hPa | 0 mm | - | 0 W/m² | - |
| 1777769647 | 7.78° C | 56% | 1020.4 hPa | 0 mm | - | 0 W/m² | - |
| 1777769342 | 8.33° C | 55% | 1020.4 hPa | 0 mm | - | 0 W/m² | - |
| 1777769040 | 8.33° C | 54% | 1020.3 hPa | 0 mm | - | 0 W/m² | - |
| 1777768737 | 8.33° C | 53% | 1020.3 hPa | 0 mm | - | 1 W/m² | - |
| 1777768434 | 8.89° C | 53% | 1020.3 hPa | 0 mm | - | 1 W/m² | - |
| 1777768131 | 8.89° C | 52% | 1020.1 hPa | 0 mm | - | 2 W/m² | - |
| 1777767828 | 8.89° C | 52% | 1020.2 hPa | 0 mm | - | 3 W/m² | - |
| 1777767524 | 8.89° C | 52% | 1020.2 hPa | 0 mm | - | 4 W/m² | - |
| 1777767221 | 9.44° C | 50% | 1020.1 hPa | 0 mm | - | 5 W/m² | - |
| 1777766918 | 9.44° C | 51% | 1020 hPa | 0 mm | - | 7 W/m² | - |
| 1777766616 | 9.44° C | 49% | 1019.9 hPa | 0 mm | - | 8 W/m² | - |
| 1777766313 | 9.44° C | 49% | 1020 hPa | 0 mm | - | 9 W/m² | - |
| 1777766010 | 10° C | 47% | 1019.8 hPa | 0 mm | - | 10 W/m² | - |
| 1777765706 | 10° C | 48% | 1019.9 hPa | 0 mm | - | 12 W/m² | - |
| 1777765403 | 10° C | 48% | 1019.9 hPa | 0 mm | - | 17 W/m² | - |
| 1777765100 | 10.56° C | 46% | 1019.9 hPa | 0 mm | - | 23 W/m² | - |
| 1777764796 | 10.56° C | 47% | 1019.7 hPa | 0 mm | - | 21 W/m² | - |
| 1777764493 | 10.56° C | 47% | 1019.8 hPa | 0 mm | - | 20 W/m² | - |
* Rain latest hour (hover to see other rain measurements)
** Current wind speed in m/s (hover to see current wind gust speed)